Temp
9 8 8 9 9 9 9 9 8 7 7 7 6 7 6 5 5 5 4 4 4 4 4 3 4 4 5 5 6 6 6 5 4 4 4 4 4 3
8 8 7 7 7 8 8 8 7 7 6 5 5 5 5 5 4 4 4 4 3 3 2 2 3 3 4 4 5 5 4 4 4 4 4 3 2 3
7 6 7 6 6 6 7 7 7 6 5 5 4 4 4 4 4 3 3 2 2 1 1 1 2 3 3 4 4 4 3 3 3 3 3 3 2 1
6 6 6 6 6 6 7 6 6 5 4 4 4 4 4 3 3 3 3 2 2 2 1 1 3 3 3 2 2 3 3 3 2 2 2 2 1 -0
5 5 6 6 6 6 5 5 4 4 4 4 4 3 3 3 2 2 2 2 2 2 2 2 2 2 2 2 2 3 2 2 2 2 1 1 0 -0
5 5 5 5 5 4 4 4 4 3 3 3 4 3 3 2 2 1 1 1 1 1 1 1 1 1 1 1 1 1 1 1 1 1 1 0 0 -0
2 3 4 4 4 4 4 4 3 3 3 4 3 3 2 2 1 1 1 1 1 0 -0 0 0 -0 0 -0 -0 -1 -1 -1 -1 -1 -1 -1 -1 -0
1 2 2 3 3 2 2 3 3 2 3 3 2 1 1 1 1 0 1 -0 -1 0 -1 -1 -1 -1 -1 -1 -1 -1 -1 -1 -1 -1 -2 -2 -2 -2
1 2 2 2 2 2 2 2 2 3 3 2 2 1 1 1 1 0 -0 -0 -1 -1 -1 -1 -1 -1 -1 -1 -1 -1 -1 -2 -2 -2 -2 -2 -2 -2
1 1 1 2 2 2 3 3 2 2 2 2 1 1 1 1 0 -0 -1 -1 -1 -1 -1 -2 -1 -2 -2 -1 -1 -1 -1 -2 -2 -2 -2 -2 -2 -2
1 1 1 2 2 2 2 2 2 2 2 1 1 1 0 0 0 -0 -1 -1 -1 -1 -2 -2 -1 -1 -1 -2 -2 -2 -2 -2 -2 -2 -2 -2 -2 -2
0 0 1 1 1 1 1 2 2 1 1 1 0 0 -0 -1 -1 -1 -1 -1 -2 -2 -2 -2 -2 -2 -2 -2 -2 -2 -2 -2 -2 -2 -2 -2 -2 -2
0 0 0 0 1 1 1 1 1 1 1 0 -0 -0 -1 -1 -1 -1 -2 -2 -2 -3 -2 -3 -3 -2 -2 -2 -2 -2 -2 -2 -2 -2 -2 -2 -2 -3
0 0 0 0 1 1 1 0 1 1 -0 -0 -0 -1 -1 -1 -1 -2 -2 -2 -2 -3 -3 -3 -3 -3 -3 -2 -2 -3 -3 -3 -3 -3 -3 -3 -3 -3
-0 0 1 0 1 1 0 0 0 0 -0 -1 -1 -1 -1 -2 -2 -2 -2 -2 -2 -3 -3 -3 -3 -4 -4 -3 -3 -3 -3 -3 -4 -3 -3 -3 -3 -3
0 -0 0 0 0 0 1 1 0 -0 -0 -0 -1 -1 -1 -2 -2 -2 -2 -2 -2 -2 -3 -3 -4 -4 -4 -4 -5 -4 -4 -5 -4 -5 -5 -4 -4 -3
-1 -0 0 0 0 1 1 0 0 -0 -0 -1 -1 -1 -2 -2 -2 -2 -2 -2 -2 -3 -3 -3 -4 -5 -5 -5 -4 -4 -5 -5 -5 -6 -6 -5 -4 -4
-1 0 0 0 0 0 0 -0 0 0 -0 -1 -1 -2 -2 -2 -3 -3 -3 -3 -3 -4 -4 -4 -5 -6 -5 -4 -5 -5 -5 -6 -6 -6 -6 -7 -5 -5
-0 0 0 1 0 0 -0 -0 -0 -1 -1 -1 -1 -2 -2 -3 -3 -3 -3 -4 -3 -4 -5 -5 -6 -7 -8 -6 -4 -6 -6 -6 -7 -7 -7 -8 -8 -5
0 1 0 0 0 -0 -1 -1 -1 -2 -1 -2 -2 -2 -2 -3 -3 -3 -3 -4 -4 -4 -5 -6 -6 -7 -8 -7 -7 -4 -7 -8 -8 -8 -7 -7 -7 -7
-0 0 0 0 -0 -1 -1 -1 -2 -2 -2 -2 -2 -2 -3 -3 -3 -3 -4 -4 -5 -5 -5 -5 -7 -9 -9 -9 -8 -5 -6 -7 -8 -8 -7 -8 -7 -6
0 0 0 0 -0 -1 -1 -2 -2 -2 -2 -2 -2 -3 -3 -3 -3 -3 -4 -5 -5 -5 -6 -6 -7 -8 -9 -9 -8 -7 -6 -7 -7 -8 -8 -9 -9 -10
-0 -0 -0 -0 -1 -1 -1 -2 -2 -2 -2 -2 -3 -3 -3 -3 -3 -4 -4 -5 -5 -5 -6 -6 -7 -8 -8 -9 -9 -8 -7 -7 -8 -7 -6 -8 -9 -8
Height
1526 1527 1528 1528 1530 1530 1531 1531 1532 1532 1534 1532 1531 1531 1531 1530 1529 1529 1528 1526 1525 1526 1525 1524 1524 1524 1526 1528 1530 1531 1532 1534 1536 1537 1538 1539 1539 1540
1520 1521 1523 1524 1524 1525 1526 1526 1527 1528 1528 1527 1527 1528 1527 1525 1526 1525 1524 1522 1522 1523 1523 1523 1522 1524 1525 1527 1529 1530 1531 1532 1533 1533 1534 1534 1535 1536
1515 1515 1517 1518 1518 1519 1521 1521 1521 1522 1522 1523 1523 1524 1523 1521 1521 1522 1522 1520 1520 1521 1520 1521 1521 1521 1523 1524 1526 1527 1528 1528 1529 1529 1529 1529 1530 1531
1511 1510 1511 1512 1513 1514 1516 1517 1518 1518 1519 1519 1520 1519 1520 1520 1520 1520 1519 1519 1519 1519 1519 1518 1518 1519 1520 1521 1522 1523 1523 1524 1525 1525 1525 1525 1526 1527
1507 1506 1507 1507 1507 1509 1511 1514 1514 1515 1515 1517 1517 1518 1516 1518 1517 1517 1517 1517 1517 1517 1516 1516 1516 1516 1517 1518 1518 1519 1519 1520 1521 1521 1522 1522 1523 1524
1502 1501 1501 1504 1505 1507 1508 1510 1513 1513 1513 1513 1513 1514 1515 1515 1515 1515 1515 1515 1515 1514 1514 1513 1513 1513 1514 1515 1516 1516 1517 1517 1518 1518 1519 1519 1519 1520
1498 1498 1497 1501 1503 1505 1505 1506 1510 1510 1509 1508 1511 1511 1512 1513 1512 1513 1512 1513 1513 1512 1511 1511 1511 1511 1511 1512 1512 1513 1513 1514 1514 1514 1515 1515 1516 1517
1494 1495 1496 1499 1500 1504 1503 1504 1507 1509 1507 1507 1508 1508 1509 1509 1510 1510 1510 1510 1510 1510 1510 1509 1509 1509 1509 1509 1509 1509 1510 1510 1510 1511 1511 1512 1512 1513
1492 1494 1496 1498 1499 1501 1501 1501 1505 1506 1504 1504 1505 1506 1506 1506 1507 1507 1508 1507 1508 1508 1508 1508 1508 1507 1507 1507 1507 1507 1508 1508 1508 1509 1509 1509 1510 1510
1491 1493 1495 1496 1498 1498 1499 1500 1502 1502 1501 1502 1504 1504 1504 1505 1505 1505 1506 1505 1505 1506 1506 1506 1506 1506 1507 1506 1506 1506 1506 1506 1506 1507 1507 1508 1508 1508
1490 1493 1493 1495 1495 1495 1496 1498 1500 1499 1500 1501 1502 1502 1503 1502 1503 1504 1504 1504 1504 1504 1504 1504 1504 1505 1505 1504 1504 1504 1504 1504 1505 1504 1504 1505 1505 1505
1490 1490 1491 1493 1493 1493 1495 1496 1497 1498 1499 1499 1500 1501 1501 1502 1502 1502 1502 1502 1503 1503 1502 1503 1502 1503 1502 1501 1501 1502 1502 1502 1501 1501 1501 1501 1501 1501
1487 1488 1489 1490 1491 1492 1493 1494 1495 1496 1496 1498 1499 1499 1500 1500 1500 1500 1500 1501 1501 1500 1500 1500 1500 1500 1500 1499 1499 1499 1499 1498 1497 1497 1497 1496 1496 1496
1485 1485 1486 1487 1488 1489 1491 1492 1493 1493 1494 1496 1496 1496 1497 1498 1498 1498 1498 1498 1498 1498 1496 1496 1496 1496 1496 1495 1494 1495 1495 1494 1493 1493 1492 1491 1491 1490
1483 1483 1484 1485 1486 1487 1489 1490 1491 1491 1492 1493 1493 1494 1495 1495 1495 1495 1495 1495 1494 1493 1493 1492 1492 1492 1492 1491 1489 1489 1489 1490 1489 1488 1487 1486 1486 1486
1481 1481 1481 1482 1484 1484 1485 1487 1488 1488 1489 1490 1491 1491 1491 1491 1492 1491 1491 1490 1490 1490 1489 1488 1488 1488 1488 1487 1485 1485 1485 1485 1485 1483 1482 1482 1482 1481
1477 1477 1478 1479 1480 1481 1482 1483 1484 1485 1486 1487 1487 1487 1487 1488 1488 1488 1487 1486 1485 1484 1484 1484 1483 1483 1483 1482 1480 1481 1481 1480 1479 1478 1476 1476 1476 1475
1472 1473 1474 1475 1476 1478 1478 1480 1480 1481 1482 1482 1482 1482 1483 1483 1483 1483 1482 1481 1480 1480 1479 1479 1478 1478 1478 1477 1477 1475 1475 1475 1474 1472 1471 1470 1469 1470
1466 1469 1470 1471 1472 1473 1474 1475 1476 1477 1477 1477 1477 1478 1478 1478 1478 1478 1478 1477 1476 1476 1475 1475 1474 1473 1472 1471 1471 1471 1469 1469 1469 1468 1467 1465 1462 1462
1462 1463 1464 1465 1466 1467 1469 1469 1471 1471 1471 1472 1472 1472 1473 1473 1473 1473 1473 1472 1471 1471 1470 1470 1469 1469 1468 1468 1465 1466 1465 1464 1463 1461 1460 1458 1456 1455
1457 1457 1459 1460 1461 1462 1463 1464 1465 1465 1466 1466 1466 1466 1466 1467 1467 1467 1467 1466 1465 1464 1464 1464 1465 1464 1462 1461 1459 1458 1459 1458 1457 1455 1453 1451 1449 1447
1450 1451 1452 1453 1454 1455 1456 1457 1457 1458 1458 1458 1459 1460 1460 1460 1460 1460 1460 1459 1459 1459 1458 1458 1458 1458 1456 1455 1453 1452 1452 1451 1451 1449 1448 1446 1444 1441
1443 1443 1444 1445 1446 1447 1448 1448 1449 1450 1450 1451 1451 1452 1452 1452 1453 1453 1453 1452 1452 1452 1452 1451 1451 1451 1450 1448 1447 1445 1444 1443 1442 1441 1440 1441 1438 1436
Wind_Speed
19 17 17 19 22 21 23 22 19 14 14 20 20 20 18 15 14 14 13 11 9 9 9 6 1 2 2 2 8 19 16 15 10 10 12 17 14 17
18 17 18 19 20 21 21 21 19 19 19 18 17 16 15 13 11 12 10 9 8 6 4 3 2 4 5 5 11 13 12 11 13 15 18 15 15 20
17 18 19 19 21 20 21 21 21 19 17 18 18 17 12 10 9 8 7 6 5 7 4 3 3 3 7 11 13 14 15 16 16 16 16 15 14 14
17 16 17 17 17 15 15 15 14 13 14 15 17 12 9 9 9 7 5 5 4 5 5 8 7 7 9 11 12 14 15 16 14 13 14 14 13 13
17 16 17 16 15 15 13 12 10 10 11 12 11 9 8 8 7 6 6 6 5 7 8 7 8 9 10 11 10 11 12 12 13 13 13 13 12 12
18 17 14 14 11 11 11 10 10 10 10 10 9 7 7 7 6 5 6 5 6 7 8 8 8 8 9 11 12 13 13 14 14 15 14 14 14 14
13 12 10 11 11 12 11 10 11 10 10 10 9 8 8 7 6 7 7 8 6 7 7 8 7 8 10 11 12 11 12 13 13 13 13 13 13 13
10 10 11 11 10 10 10 9 10 10 10 9 8 8 8 7 7 7 7 7 7 5 3 7 6 7 7 7 8 8 9 10 10 10 9 8 9 11
9 9 8 9 10 10 10 9 10 10 10 9 8 9 8 6 7 7 6 4 5 5 5 4 3 4 4 4 5 5 5 5 5 6 6 7 7 7
9 9 10 9 9 9 7 8 8 6 5 6 6 6 6 6 5 4 4 3 3 3 3 4 3 4 5 6 5 6 6 5 6 7 8 8 10 11
9 10 9 9 9 8 7 8 7 5 5 5 4 4 3 3 3 3 3 3 4 4 4 5 4 4 6 8 8 7 7 8 9 10 10 11 12 13
10 10 9 7 6 6 8 8 7 5 5 4 4 4 3 3 4 3 3 3 4 6 3 5 6 8 5 6 6 6 7 8 8 10 11 11 12 13
10 10 9 8 7 7 8 8 7 6 5 5 5 4 4 4 4 5 6 6 7 9 11 10 10 10 8 12 10 10 11 12 14 14 14 15 16 17
11 10 9 8 8 8 9 9 8 6 6 6 6 5 5 5 5 7 9 10 10 10 13 13 13 12 13 14 13 11 11 11 13 13 14 15 16 16
11 10 9 9 9 9 9 9 9 8 8 8 8 7 7 8 9 10 12 13 13 12 12 14 14 13 14 15 17 16 15 12 13 13 10 12 15 15
10 10 10 10 10 10 10 10 10 10 10 10 10 10 9 10 11 13 14 14 14 12 12 13 13 14 15 16 18 19 17 14 14 15 15 16 16 17
12 12 12 12 12 12 12 12 12 12 12 12 12 12 12 12 12 14 14 14 15 14 13 13 13 14 15 17 19 18 17 17 15 16 17 18 16 16
15 15 15 15 15 14 14 13 14 13 12 14 14 13 13 14 14 15 15 15 15 15 16 14 13 15 16 18 16 16 15 15 15 17 15 19 20 16
20 18 18 17 16 15 16 16 15 14 15 15 15 15 15 15 15 16 15 16 17 15 16 15 14 14 17 19 19 16 18 14 14 17 19 21 24 21
23 21 20 19 19 18 17 17 17 17 18 17 17 17 18 17 17 17 16 17 17 17 18 17 16 16 18 19 21 18 18 21 21 22 23 21 22 23
24 24 22 21 21 20 20 20 20 20 20 21 20 20 20 20 20 18 17 18 19 20 20 18 14 16 18 18 24 23 20 22 22 22 24 25 25 25
27 26 25 24 23 22 22 23 24 24 24 23 22 22 22 22 22 20 19 19 19 21 22 20 18 19 21 23 26 26 24 23 20 19 21 23 24 26
29 29 28 27 25 25 25 26 26 26 25 25 25 25 24 25 23 22 21 20 21 22 22 21 20 22 24 26 25 26 26 24 23 21 19 16 19 22
Wind_Direction
267 260 250 252 255 258 265 270 251 256 263 262 265 274 281 283 287 292 292 297 293 292 300 317 105 55 266 154 201 201 212 200 219 241 272 288 281 254
266 245 260 257 258 253 262 253 258 262 261 252 257 268 275 284 292 293 287 277 284 322 327 307 213 200 216 188 193 210 228 244 262 277 280 279 268 270
261 251 249 252 253 256 257 261 260 259 241 244 260 268 275 286 304 305 302 290 287 288 302 300 286 239 245 249 252 257 263 267 267 270 273 275 270 265
259 257 254 253 256 259 259 257 260 256 247 238 251 254 266 283 298 301 296 285 283 289 286 286 272 283 271 263 259 257 261 266 270 272 271 265 257 238
255 251 250 249 247 246 245 249 246 237 237 247 250 261 259 272 278 275 274 271 281 285 283 281 283 280 278 278 275 276 277 284 278 272 266 261 256 252
251 247 247 245 233 230 228 226 228 232 236 246 252 245 251 257 259 263 260 271 282 285 287 287 287 283 278 275 274 271 270 268 267 267 264 259 257 256
244 241 223 222 223 224 221 221 233 230 232 245 254 249 253 248 254 251 258 274 272 275 287 287 287 285 280 276 275 274 270 266 266 268 270 268 265 257
238 217 213 220 215 214 212 221 229 240 243 249 248 248 250 258 262 263 264 264 272 290 296 296 294 291 288 289 283 280 273 272 272 272 269 261 250 252
215 209 206 201 205 214 222 229 234 237 236 239 243 248 254 262 264 270 271 266 276 294 307 293 296 296 295 299 288 282 278 270 262 259 258 258 261 262
204 206 214 218 218 218 216 217 225 222 226 238 245 253 259 264 262 264 261 266 272 285 301 292 285 288 297 298 291 284 276 272 268 268 269 265 267 268
217 223 222 218 221 218 216 218 207 205 212 220 225 231 240 245 253 258 269 279 283 291 296 299 296 304 291 281 281 276 269 263 260 260 264 269 270 267
224 223 227 225 230 224 210 214 209 200 203 204 206 213 223 244 252 267 283 290 291 293 302 300 302 312 297 280 273 276 277 272 266 266 267 268 270 270
224 220 223 228 226 223 219 220 216 209 205 205 210 219 229 249 271 282 286 289 290 288 291 295 295 293 279 281 285 280 275 270 272 273 272 271 272 271
226 224 223 225 227 227 227 223 230 216 217 227 237 246 261 272 286 292 290 291 289 284 288 291 291 293 293 292 294 282 286 284 278 275 276 277 276 275
230 231 230 234 237 238 236 234 236 231 233 244 254 265 273 285 289 288 290 290 287 285 281 281 282 282 284 288 292 296 299 288 285 285 277 277 281 282
241 241 242 241 239 238 240 242 242 241 247 253 261 265 271 277 285 291 293 290 290 286 277 275 275 276 278 283 288 293 298 298 297 294 286 284 286 289
245 245 246 246 246 245 246 246 248 249 254 259 262 269 276 279 284 289 297 297 295 293 286 278 276 276 277 281 284 292 298 295 299 295 293 293 290 289
251 250 251 250 251 252 253 255 256 257 258 260 263 267 270 277 286 293 298 300 300 300 296 291 283 280 284 284 288 293 289 295 296 294 295 296 295 291
256 257 258 257 259 259 258 259 261 262 261 262 265 265 265 271 279 287 290 293 296 298 298 297 288 281 285 289 299 291 292 291 290 294 297 296 296 297
260 262 263 263 264 264 262 263 266 265 265 265 265 265 265 268 272 277 281 286 290 290 287 287 289 290 288 294 289 288 285 292 297 295 294 291 287 290
264 267 268 267 267 266 265 264 264 265 266 265 265 265 263 265 269 272 276 281 285 285 285 287 294 283 283 283 282 296 297 294 292 289 291 291 293 295
268 268 269 269 268 268 268 266 265 264 264 265 266 266 263 263 265 268 273 278 280 283 287 289 285 281 278 275 281 289 294 292 291 285 280 280 282 282
269 270 270 270 269 269 268 266 265 265 265 266 267 266 264 262 261 263 271 278 285 286 286 285 283 280 281 280 283 290 294 297 299 293 283 278 277 280